Home   Weather   Wichita   Past weeks

Flag for USA Past Weather in Wichita, Kansas, USA — Yesterday and Last 2 Weeks

Now
59 °F

Mostly cloudy.


Feels Like: 57 °F
Forecast: 55 / 76 °F
Wind: 13 mph from Southeast

Location: Wichita Mid-Continent Airport

Current Time: Apr 25, 2017 at 7:54:09 am

Latest Report: Apr 25, 2017 at 6:53 am


Visibility: 10 mi

Pressure: 29.33 "Hg

Humidity: 75%

Dew Point: 51 °F

Location of WichitaLocation

Past Weather in Wichita — Graph

°F

Wichita Temperature Yesterday

Maximum temperature yesterday: 75 °F (at 3:53 pm)
Minimum temperature yesterday: 46 °F (at 5:53 am)
Average temperature yesterday: 61 °F

High & Low Weather Summary for the Past Weeks

 TemperatureHumidityPressure
High80 °F (Apr 19, 4:53 pm)100% (Apr 14, 12:53 am)30.32 "Hg (Apr 14, 12:53 am)
Low39 °F (Apr 11, 6:53 am)26% (Apr 11, 2:53 pm)29.34 "Hg (Apr 25, 5:53 am)
Average61 °F71%30.00 "Hg
* Reported Apr 10 5:53 am — Apr 25 5:53 am, Wichita, Weather by CustomWeather, © 2017

Note: Actual official high and low records may vary slightly from our data, if they occured in-between our weather recording intervals... More about our weather records

Advertising

Wichita Weather History for the Previous 24 Hours

Scroll right to see more
 ConditionsComfort  
Time TempWeatherWind HumidityBarometerVisibility
5:53 am
Tue, Apr 25
58 °FMostly cloudy.10 mph78%29.34 "Hg10 mi
4:53 am59 °FClear.13 mph72%29.35 "Hg10 mi
3:53 am60 °FClear.16 mph69%29.36 "Hg10 mi
2:53 am61 °FPassing clouds.16 mph65%29.40 "Hg10 mi
1:53 am62 °FPassing clouds.16 mph62%29.45 "Hg10 mi
12:53 am63 °FPassing clouds.16 mph58%29.47 "Hg10 mi
11:53 pm
Mon, Apr 24
63 °FPassing clouds.12 mph63%29.50 "Hg10 mi
10:53 pm64 °FOvercast.12 mph61%29.52 "Hg10 mi
9:53 pm64 °FOvercast.12 mph63%29.53 "Hg10 mi
8:53 pm64 °FPassing clouds.12 mph65%29.52 "Hg10 mi
7:53 pm68 °FBroken clouds.12 mph57%29.53 "Hg10 mi
6:53 pm71 °FBroken clouds.18 mph49%29.54 "Hg10 mi
5:53 pm72 °FPartly sunny.18 mph49%29.55 "Hg10 mi
4:53 pm75 °FBroken clouds.22 mph42%29.54 "Hg10 mi
3:53 pm75 °FBroken clouds.30 mph40%29.56 "Hg10 mi
2:53 pm74 °FPartly sunny.31 mph40%29.58 "Hg10 mi
1:53 pm73 °FScattered clouds.29 mph40%29.61 "Hg10 mi
12:53 pm71 °FScattered clouds.30 mph41%29.65 "Hg10 mi
11:53 am68 °FPassing clouds.28 mph45%29.67 "Hg10 mi
10:53 am63 °FScattered clouds.26 mph48%29.74 "Hg10 mi
9:53 am61 °FPartly sunny.25 mph50%29.78 "Hg10 mi
8:53 am57 °FScattered clouds.23 mph55%29.80 "Hg10 mi
7:53 am51 °FScattered clouds.16 mph66%29.81 "Hg10 mi
Weather by CustomWeather, © 2017

See weather overviewHow to use our weather pages